User: anonymous   Login
Location: Unspecified
(0.0000°N, 0.0000°E)
Time: 15:44:35
(UTC+00:00)
Language:

Spot 2 - Orbit

View from above orbital plane
View from above orbital plane
View from above satellite
View from above satellite

Ground track
Ground track

The orbit data is extracted from the following two-line orbital elements,

1 20436U 90005A   18168.82820655 +.00000075 +00000-0 +21699-4 0  9992
2 20436 098.6474 101.2962 0144465 197.7046 161.9104 14.66340590486620
Epoch (UTC): 17 June 2018 19:52:37
Eccentricity: 0.0144465
inclination: 98.6474°
perigee height: 571 km
apogee height: 774 km
right ascension of ascending node: 101.2962°
argument of perigee: 197.7046°
revolutions per day: 14.66340590
mean anomaly at epoch: 161.9104°
orbit number at epoch: 48662

The dashed part of the orbit path shows where the satellite is in the earth's shadow,  

DLR